STARLINK-36285, 68530

Orbit data source: Space-Track

STARLINK-36285, 68530 is a payload satellite owned by SpaceX/Seattle (US) in LEO that was launched on Mon, 30 Mar 2026 UTC via an FALCON 9 launch vehicle from the Air Force Eastern Test Range (AFETR). Payload-class satellites include a variety of spacecraft equipped with specific instruments for various scientific and technological missions. These include communications satellites like Starlink; space stations such as the ISS; scientific satellites like the Hubble; Earth observation satellites from companies like Planet Labs, Umbra, and HawkEye 360; GPS; miniature CubeSats for education and research; and military/defense satellites.

Loading next visibility...
Identifier
68530, 2026-068Y
Orbit
LEO
Country
Flag of USUS
Related business
Manufacturer
SpaceX/Seattle
Mission
Operational spacecraft
Bus & Motor
STARLINK V2MO, Unknown motor
Mass
575 kg wet, ~530 kg dry
Launch date (UTC)
2026-03-30 (3 months ago)
Launch vehicle
FALCON 9
Launch site
Air Force Eastern Test Range (AFETR)
Object type
Payload
Rocket body
Debris
Shape & HBR
Unknown shape, 14.5 m
Radar Cross Section
Large (>1 m²)

Expand to show TLE details & history
Last TLE update: 3 days ago

TLE from 3 days ago
0 STARLINK-36285
1 68530U 26068Y   26168.89062371  .00010042  00000-0  35066-3 0  9993
2 68530  53.1574  24.0245 0001063  83.1313 276.9808 15.30203677 12282
Epoch: 2026-06-17T21:22Z
TLE epoch observation values (Epoch: 2026-06-17T21:22:29.888Z)
Latitude
-0.00008°
Longitude
157.2581°
Altitude
476.015 km
Speed
7.629 km/s
True Right ascension
01h 36m 05s
True Declination
0° 00' 00"
Sunlit
Object was in daylight at epoch
Visualization orbit readout
Latitude
Unknown
Longitude
Unknown
Altitude
Unknown
Speed
Unknown
Apparent Right ascension
Unknown
Apparent Declination
Unknown
Sunlit
N/A
Visualization observer readout
Local Sidereal Time
10:18:37
Azimuth
Unknown
Elevation
Unknown
Doppler factor
Unknown
Orbital elements
Apogee altitude
476.189 km
Perigee altitude
474.732 km
Semi-major axis
6,853.598 km
Eccentricity
0.00011
Inclination
53.1574°
RAAN
24.0245°
Arg. of periapsis
83.1313°
True anomaly
276.96871°
Mean anomaly
276.9808°
Eccentric anomaly
276.97475°
Mean motion
3.8253 °/min
Orbital period
94.11 mins
BSTAR
0.00035066
Loading maneuver chart data...
Computing Atmospheric mass density...
Loading historical data...
Loading historical data...
Loading historical data...
Loading historical data...
Loading historical data...
Loading historical data...
Loading historical data...

Documentation

Showing up to 5 results
|